Lexington Weather

Lexington, Massachusetts, USA

53°F
9/29/2022 4:02am 
  • Lexington Conditions: Clear
  • Temperature: 52.5°F / 11.4°CColder 0.9°F than last hour.
  • Dew Point: 48.4°FDecreased 0.7°Fsince last hour.
  • Relative Humidity: 86%Increased 1.0% since last hour.
  • Wind: Calm, 10-min avg: Calm, gust: None
  • Barometer: 30.20 inRising 0.02  inHg/hr Rising Slowly
  • Visibility: 10 miles
  • Rain Today: 0.00 in
  •   

Regional Weather Roundup
for Boston, MA

        
000
ASUS41 KBOX 252110
RWRBOX

REGIONAL WEATHER ROUNDUP
NATIONAL WEATHER SERVICE BOSTON/NORTON MA
500 PM EDT SUN SEP 25 2022

NOTE:  "FAIR" INDICATES FEW OR NO CLOUDS BELOW 12,000 FEET WITH NO 
SIGNIFICANT WEATHER AND/OR OBSTRUCTIONS TO VISIBILITY.

MAZALL-252200-
EASTERN MASSACHUSETTS
  
CITY           SKY/WX    TMP DP  RH WIND       PRES   REMARKS
BOSTON         LGT RAIN  66  59  78 S9        29.67F                  
BEVERLY        LGT RAIN  64  56  75 S6        29.66F                  
LAWRENCE       LGT RAIN  64  56  75 S5        29.68F                  
BEDFORD        LGT RAIN  64  58  80 S6        29.65F                  
NORWOOD        CLOUDY    67  62  84 VRB6      29.67F                  
MARSHFIELD     PTSUNNY   64  61  88 S8        29.68F                  
PLYMOUTH       CLOUDY    67  60  78 S8        29.69F                  
TAUNTON          N/A    N/A N/A N/A MISG      29.68F                  
NEW BEDFORD    PTSUNNY   69  63  81 S12       29.68F                  
$$

MAZALL-252200-
CAPE COD AND THE ISLANDS
  
CITY           SKY/WX    TMP DP  RH WIND       PRES   REMARKS
FALMOUTH       SUNNY     68  61  77 S15       29.71F                  
HYANNIS        CLOUDY    69  61  75 S12G21    29.70F                  
CHATHAM        CLOUDY    66  60  81 VRB6      29.73F                  
PROVINCETOWN   PTSUNNY   66  60  81 S12G18    29.71F                  
NANTUCKET      CLOUDY    69  63  81 S17       29.73F                  
MARTHAS VNYRD  PTSUNNY   69  64  84 S13       29.70F                  
$$
 
MAZALL-252200-
CENTRAL AND WESTERN MASSACHUSETTS
  
CITY           SKY/WX    TMP DP  RH WIND       PRES   REMARKS
WORCESTER      CLOUDY    61  58  90 S8        29.67F                  
FITCHBURG      CLOUDY    63  57  81 SE6       29.66F                  
ORANGE         CLOUDY    61  56  83 CALM      29.64F                  
SPRINGFIELD    PTSUNNY   65  60  82 SE6       29.59F                  
WESTFIELD      PTSUNNY   65  59  81 CALM      29.61F                  
NORTH ADAMS    CLOUDY    64  54  69 VRB7G20   29.60F                  
PITTSFIELD     CLOUDY    60  54  80 S9        29.61F                  
$$
 
RIZALL-252200-
RHODE ISLAND
  
CITY           SKY/WX    TMP DP  RH WIND       PRES   REMARKS
PROVIDENCE     PTSUNNY   69  60  73 S12       29.67F                  
NEWPORT        PTSUNNY   67  62  84 S10       29.68F                  
BLOCK ISLAND   PTSUNNY   69  62  78 S16G22    29.68F                  
SMITHFIELD     PTSUNNY   66  61  84 VRB3      29.68F                  
WESTERLY       PTSUNNY   70  62  76 S9        29.67F                  
$$
 
CTZALL-252200-
CONNECTICUT
  
CITY           SKY/WX    TMP DP  RH WIND       PRES   REMARKS
BRADLEY INTL   PTSUNNY   70  58  65 S10       29.61F                  
HARTFORD       PTSUNNY   70  59  68 S9G20     29.62F                  
BRIDGEPORT     CLOUDY    72  59  63 SW16      29.64S                  
DANBURY        LGT RAIN  69  57  65 S6        29.64F                  
GROTON         PTSUNNY   72  62  71 S15       29.65F                  
NEW HAVEN      PTSUNNY   73  62  68 S10       29.64F                  
CHESTER        FAIR      70  61  73 S10       29.65F                  
MERIDEN        PTSUNNY   70  58  65 S9        29.63F                  
WILLIMANTIC    PTSUNNY   68  59  73 S8        29.64F                  
OXFORD         CLOUDY    66  59  78 S7        29.65F                  
$$

MEZ002-015-021-024-NHZ003-005-008-011-012-014-VTZ005-008-252200-
NORTHERN NEW ENGLAND
  
CITY           SKY/WX    TMP DP  RH WIND       PRES   REMARKS
PORTLAND ME    CLOUDY    60  54  80 S6        29.69R                  
BANGOR ME      CLOUDY    59  48  67 S10       29.68S                  
CONCORD NH     LGT RAIN  58  54  86 E12       29.65F                  
MANCHESTER NH  LGT RAIN  61  56  83 SE6       29.64F                  
NASHUA NH      CLOUDY    62  62 100 SE3       29.66F                  
PORTSMOUTH NH  LGT RAIN  61  54  78 SE5       29.67F                  
JAFFREY NH     CLOUDY    60  55  83 S5        29.65F                  
KEENE NH       LGT RAIN  60  57  89 S5          N/A                   
BURLINGTON VT  LGT RAIN  56  54  93 E3        29.58F                  
MT. WASHINGTON DRZL/FOG  37  37 100 SW24G41     N/A  VSB 1/16WCI  26  
$$

NYZ052-076-252200-
EASTERN NEW YORK
  
CITY           SKY/WX    TMP DP  RH WIND       PRES   REMARKS
ALBANY         PTSUNNY   65  54  67 S13G25    29.56F                  
NEW YORK CITY  CLOUDY    69  56  62 S13       29.62F                  
$$
 
ANZALL-252200-
MARINE OBSERVATIONS
  
STATION/POSITION TIME  TEMP    WIND        PRES    VSBY  WAVE
                       AIR SEA DIR/SP/G                  HT/PER
                 (UTC) (F)     (DEG/KT/KT) (MB)    (MI)  (FT/S)
BOSTON BUOY      2050      62  150/  6/  6 1005.7F         1/10
BUZZARDS BAY     2000   66     170/ 13/ 15 1006.2F
NANTUCKET SOUND  2050   67 67  170/ 19/ 21 1006.0F         2/ 3
MASS BAY-STELLWA 1904   62 61  160/  8/  8 1005.2F  1 7/8  1/ 3
ISLE OF SHOALS   2000   61     170/ 11/ 12 1004.9F
S OF BLOCK IS    2056      67                N/A           4/ 5
$$

......................KEY.........................
  SKY/WX - SKY CONDITION/PRESENT WEATHER
  TMP    - TEMPERATURE IN FAHRENHEIT
  DWPT   - DEWPOINT IN FAHRENHEIT
  RH     - RELATIVE HUMIDITY IN PERCENT
  WIND   - DIRECTION AND SPEED IN MPH
  PRES   - MEAN SEA LEVEL PRESSURE IN INCHES OF HG
  WCI    - WIND CHILL INDEX
  VSB    - VISIBILITY IN MILES
  HX     - HEAT INDEX
  TC     - TEMPERATURE IN CELSIUS
  VRB    - VARIABLE WIND DIRECTION
  N/A    - NOT AVAILABLE
  
      

Other recent Regional Weather Roundups

Thu Sep 29, 3:10am

Thu Sep 29, 2:10am

Thu Sep 29, 1:10am

Thu Sep 29, 12:10am

Wed Sep 28, 11:10pm

Wed Sep 28, 10:10pm

Wed Sep 28, 9:10pm

Wed Sep 28, 8:10pm

Wed Sep 28, 7:10pm

Wed Sep 28, 6:10pm

Wed Sep 28, 5:10pm

Wed Sep 28, 4:10pm

Wed Sep 28, 3:10pm

Wed Sep 28, 2:10pm

Wed Sep 28, 1:10pm

Wed Sep 28, 12:10pm

Wed Sep 28, 11:10am

Wed Sep 28, 10:10am

Wed Sep 28, 9:10am

Wed Sep 28, 8:10am

Wed Sep 28, 7:10am

Wed Sep 28, 6:10am

Wed Sep 28, 5:10am

Wed Sep 28, 4:10am

Wed Sep 28, 3:10am

Wed Sep 28, 2:10am

Wed Sep 28, 1:10am

Wed Sep 28, 12:10am

Tue Sep 27, 11:10pm

Tue Sep 27, 10:10pm

Tue Sep 27, 9:10pm

Tue Sep 27, 8:10pm

Tue Sep 27, 7:10pm

Tue Sep 27, 6:10pm

Tue Sep 27, 5:10pm

Tue Sep 27, 4:10pm

Tue Sep 27, 3:10pm

Tue Sep 27, 2:10pm

Tue Sep 27, 1:10pm

Tue Sep 27, 12:10pm

Tue Sep 27, 11:10am

Tue Sep 27, 10:10am

Tue Sep 27, 9:10am

Tue Sep 27, 8:10am

Tue Sep 27, 7:10am

Tue Sep 27, 6:10am

Tue Sep 27, 5:10am

Tue Sep 27, 4:10am

Tue Sep 27, 3:10am

Tue Sep 27, 2:10am

Tue Sep 27, 1:10am

Tue Sep 27, 12:10am

Mon Sep 26, 11:10pm

Mon Sep 26, 10:10pm

Mon Sep 26, 9:10pm

Mon Sep 26, 8:10pm

Mon Sep 26, 7:10pm

Mon Sep 26, 6:10pm

Mon Sep 26, 5:10pm

Mon Sep 26, 4:10pm

Mon Sep 26, 3:10pm

Mon Sep 26, 2:10pm

Mon Sep 26, 1:10pm

Mon Sep 26, 12:10pm

Mon Sep 26, 11:10am

Mon Sep 26, 10:10am

Mon Sep 26, 9:10am

Mon Sep 26, 8:10am

Mon Sep 26, 7:10am

Mon Sep 26, 6:10am

Mon Sep 26, 5:10am

Mon Sep 26, 4:10am

Mon Sep 26, 3:10am

Mon Sep 26, 2:10am

Mon Sep 26, 1:10am

Mon Sep 26, 12:10am

Sun Sep 25, 11:10pm

Sun Sep 25, 10:10pm

Sun Sep 25, 9:10pm

Sun Sep 25, 8:10pm

Sun Sep 25, 7:10pm

Sun Sep 25, 6:10pm

Sun Sep 25, 4:10pm

Sun Sep 25, 3:10pm

Sun Sep 25, 2:10pm

Sun Sep 25, 1:10pm

Sun Sep 25, 12:10pm

Sun Sep 25, 11:10am

Sun Sep 25, 10:10am

Sun Sep 25, 9:10am

Sun Sep 25, 8:10am

Sun Sep 25, 7:10am

Sun Sep 25, 6:10am

Sun Sep 25, 5:10am

Sun Sep 25, 4:10am

Sun Sep 25, 3:10am

Sun Sep 25, 2:10am

Sun Sep 25, 1:10am

Sun Sep 25, 12:10am

Sat Sep 24, 11:10pm

Sat Sep 24, 10:10pm

Sat Sep 24, 9:10pm

Sat Sep 24, 8:10pm

Sat Sep 24, 7:10pm

Sat Sep 24, 6:10pm

Sat Sep 24, 5:10pm

Sat Sep 24, 4:10pm

Sat Sep 24, 3:10pm

Sat Sep 24, 2:10pm

Sat Sep 24, 1:10pm

Sat Sep 24, 12:10pm

Sat Sep 24, 11:10am

Sat Sep 24, 10:10am

Sat Sep 24, 9:10am

Sat Sep 24, 8:10am

Sat Sep 24, 7:10am

Sat Sep 24, 6:10am

Sat Sep 24, 5:10am

Sat Sep 24, 4:10am

Sat Sep 24, 3:10am

Sat Sep 24, 2:10am

Sat Sep 24, 1:10am

Sat Sep 24, 12:10am

Fri Sep 23, 11:10pm

Fri Sep 23, 10:10pm

Fri Sep 23, 9:10pm

Fri Sep 23, 8:10pm

Fri Sep 23, 7:10pm

Fri Sep 23, 6:10pm

Fri Sep 23, 5:10pm

Fri Sep 23, 4:10pm

Fri Sep 23, 3:10pm

Fri Sep 23, 2:10pm

Fri Sep 23, 1:10pm

Fri Sep 23, 12:10pm

Fri Sep 23, 11:10am

Fri Sep 23, 10:10am

Fri Sep 23, 9:10am

Fri Sep 23, 8:10am

Fri Sep 23, 7:10am

Fri Sep 23, 6:10am

Fri Sep 23, 5:10am

Fri Sep 23, 4:10am

Fri Sep 23, 3:10am

Fri Sep 23, 2:10am

Fri Sep 23, 1:10am

Fri Sep 23, 12:10am

Thu Sep 22, 11:10pm

Thu Sep 22, 10:10pm

Thu Sep 22, 9:10pm

Thu Sep 22, 8:10pm

Thu Sep 22, 7:10pm

Thu Sep 22, 6:10pm

Thu Sep 22, 5:10pm

Thu Sep 22, 4:10pm

Thu Sep 22, 3:10pm

Thu Sep 22, 2:10pm

Thu Sep 22, 1:10pm

Thu Sep 22, 12:10pm

Thu Sep 22, 11:10am

Thu Sep 22, 10:10am

Thu Sep 22, 9:10am

Thu Sep 22, 8:10am

Thu Sep 22, 7:10am

Thu Sep 22, 6:10am

Thu Sep 22, 5:10am

Thu Sep 22, 4:10am

Meta data:

ID: db9d7147-9b9a-447d-8d20-f0a6b3ddaab4
Link: https://api.weather.gov/products/db9d7147-9b9a-447d-8d20-f0a6b3ddaab4